Location: Martinez
(33.5170°N, 82.0760°W)
Time: 05:24:14
(UTC-04:00)

Hubble Space Telescope - Visible Passes

Search period start: 26 April 2018 00:00
Search period end: 06 May 2018 00:00
Orbit: 537 x 541 km, 28.5° (Epoch: 25 April)

Date Brightness Start Highest point End Pass type
(mag) Time Alt. Az. Time Alt. Az. Time Alt. Az.
26 Apr 1.9 21:16:16 10° SW 21:19:44 26° SSE 21:20:37 24° SE visible
27 Apr 1.8 21:05:44 10° SW 21:09:21 30° SSE 21:11:13 21° SE visible
27 Apr 3.5 22:46:21 10° WSW 22:46:35 11° WSW 22:46:35 11° WSW visible
28 Apr 1.6 20:55:15 10° SW 20:58:59 33° S 21:01:43 16° ESE visible
28 Apr 3.1 22:36:00 10° WSW 22:37:04 17° WSW 22:37:04 17° WSW visible
29 Apr 1.5 20:44:49 10° WSW 20:48:37 36° S 20:52:07 12° ESE visible
29 Apr 2.6 22:25:41 10° WSW 22:27:28 23° WSW 22:27:28 23° WSW visible
30 Apr 1.5 20:34:24 10° WSW 20:38:16 39° S 20:42:08 10° ESE visible
30 Apr 2.2 22:15:22 10° WSW 22:17:47 28° SW 22:17:47 28° SW visible
01 May 1.9 22:05:05 10° WSW 22:08:03 31° SSW 22:08:03 31° SSW visible
02 May 1.9 21:54:49 10° WSW 21:58:17 30° SSW 21:58:17 30° SSW visible
03 May 2.0 21:44:35 10° WSW 21:48:04 26° SSW 21:48:30 26° S visible
04 May 2.3 21:34:25 10° WSW 21:37:41 22° SSW 21:38:43 20° S visible
05 May 2.6 21:24:19 10° WSW 21:27:16 19° SSW 21:28:56 15° S visible
